Tracking 30923 objects as of 1-Jul-2025
HD Live streaming from Space Station
objects crossing your sky now

IRS P6

Track IRS P6 now!
10-day predictions
IRS P6 is classified as:


NORAD ID: 28051
Int'l Code: 2003-046A
Perigee: 733.7 km
Apogee: 824.2 km
Inclination: 98.2 °
Period: 100.3 minutes
Semi major axis: 7149 km
RCS: 5.9386 m2 (large)
Launch date: October 17, 2003
Source: India (IND)
Launch site: SRIHARIKOTA (SRI)

Monitor agricultural, land, and water resources.
Your satellite tracking list
STARLINK-3697
Track 1 satellite(s)




NASA's NSSDC Master Catalog

Two Line Element Set (TLE):
1 28051U 03046A   25181.88051480  .00000074  00000-0  39168-4 0  9992
2 28051  98.2397 229.6812 0063292 316.7136 217.0812 14.35985730130139
Source of the keplerian elements: AFSPC